TITAN 3C TRANSTAGE DEB, 1646

Orbit data source: Space-Track

TITAN 3C TRANSTAGE DEB, 1646 is space debris in LEO originally from a launch on Fri, 15 Oct 1965 UTC launched from the Air Force Eastern Test Range (AFETR). Debris objects in space refer to the collection of defunct objects orbiting the Earth. Examples of debris include non-operational satellites, rocket bodies, and fragments generated from explosions, collisions, or faulty payload assembly.

Loading next visibility...
Identifier
1646, 1965-082H
Orbit
LEO
Country
Flag of USUS
Related business
Manufacturer
Unknown
Mission
Spacecraft
Bus & Motor
Unknown
Mass
Unknown
Launch date (UTC)
1965-10-15 (60 years ago)
Launch vehicle
Unknown
Launch site
Air Force Eastern Test Range (AFETR)
Object type
Payload
Rocket body
Debris
Shape & HBR
Unknown shape, 1.2 m
Radar Cross Section
Large (>1 m²)

Expand to show TLE details & history
Last TLE update: 13 hours ago

TLE from 13 hours ago
0 TITAN 3C TRANSTAGE DEB
1 01646U 65082H   26015.84663030  .00000688  00000-0  90218-4 0  9998
2 01646  32.3074 193.6013 0003073 298.0311  62.0030 14.77158341197636
Epoch: 2026-01-15T20:19Z
TLE epoch observation values (Epoch: 2026-01-15T20:19:08.857Z)
Latitude
-0.00006°
Longitude
133.51991°
Altitude
635.955 km
Speed
7.543 km/s
True Right ascension
12h 54m 24s
True Declination
0° 00' 00"
Sunlit
Object was in daylight at epoch
Visualization orbit readout
Latitude
Unknown
Longitude
Unknown
Altitude
Unknown
Speed
Unknown
Apparent Right ascension
Unknown
Apparent Declination
Unknown
Sunlit
N/A
Visualization observer readout
Local Sidereal Time
10:22:04
Azimuth
Unknown
Elevation
Unknown
Doppler factor
Unknown
Orbital elements
Apogee altitude
644.059 km
Perigee altitude
639.744 km
Semi-major axis
7,020.038 km
Eccentricity
0.00031
Inclination
32.3074°
RAAN
193.6013°
Arg. of periapsis
298.0311°
True anomaly
62.0341°
Mean anomaly
62.003°
Eccentric anomaly
62.01855°
Mean motion
3.69006 °/min
Orbital period
97.56 mins
BSTAR
0.000090218

Documentation

Showing up to 5 results
|